Weather History for Sault Ste Marie, MI

Change the Weather History Date:

Saturday, April 28, 2012

  Actual Average Record
Temperature  
Mean Temperature 41 °F 46 °F  
Max Temperature 53 °F 56 °F 77 °F (1970)
Min Temperature 28 °F 36 °F 20 °F (1909)
Degree Days  
Heating Degree Days 24 19  
Month to date heating degree days 668 704  
Since 1 July heating degree days 6669 8030  
Cooling Degree Days 0 0  
Month to date cooling degree days 0 0  
Year to date cooling degree days 2 0  
Moisture  
Dew Point 15 °F    
Average Humidity 42    
Maximum Humidity 70    
Minimum Humidity 14    
Precipitation  
Precipitation 0.00 in 0.07 in 2.12 in (1914)
Month to date precipitation 1.26 2.24  
Year to date precipitation 7.71 7.72  
Snow  
Snow 0.00 in 0.10 in 2.20 in (1907)
Month to date snowfall 3.7 6.6  
Since 1 July snowfall 84.0 120.2  
Snow Depth 0.00 in    
Sea Level Pressure  
Sea Level Pressure 30.29 in    
Wind  
Wind Speed 6 mph (North)    
Max Wind Speed 14 mph    
Max Gust Speed 19 mph    
Visibility 10 miles    
Events      
T = Trace of Precipitation, MM = Missing Value Source: NWS Daily Summary

Daily Weather History Graph

Daily Weather History Graph

Search for Another Location

Airport:

Trip Planner

Search our weather history database for the weather conditions in past years. The results will help you decide how hot, cold, wet, or windy it might be!

Date:

Astronomy

Apr. 28, 2012 Rise Set
Actual Time 6:27 AM EDT 8:43 PM EDT
Civil Twilight 5:54 AM EDT 9:16 PM EDT
Nautical Twilight 5:12 AM EDT 9:58 PM EDT
Astronomical Twilight 4:26 AM EDT 10:44 PM EDT
Moon 12:04 PM EDT (4/28) 2:10 AM EDT (4/28)
Length of Visible Light 15h 22m
Length of Day
14h 16m
Waxing Crescent, 42% of the Moon is Illuminated
Apr 28
Waxing Crescent
Apr 29
First Quarter
May 5
Full
May 12
Last Quarter
May 20
New

Hourly Weather History & Observations

Time (EDT) Temp. Windchill Dew Point Humidity Pressure Visibility Wind Dir Wind Speed Gust Speed Precip Events Conditions
12:55 AM 30.0 °F 26.5 °F 21.0 °F 69% 30.30 in 10.0 mi North 3.5 mph - N/A   Clear
1:55 AM 30.9 °F 27.5 °F 19.9 °F 64% 30.31 in 10.0 mi NNE 3.5 mph - N/A   Clear
2:55 AM 30.0 °F 26.5 °F 19.9 °F 66% 30.30 in 10.0 mi ENE 3.5 mph - N/A   Clear
3:55 AM 28.9 °F 25.2 °F 19.9 °F 69% 30.31 in 10.0 mi ENE 3.5 mph - N/A   Clear
4:55 AM 30.0 °F 25.2 °F 16.0 °F 56% 30.32 in 10.0 mi ENE 4.6 mph - N/A   Clear
5:55 AM 28.9 °F 23.9 °F 14.0 °F 54% 30.31 in 10.0 mi ENE 4.6 mph - N/A   Clear
6:55 AM 28.0 °F 24.2 °F 17.1 °F 63% 30.33 in 10.0 mi ENE 3.5 mph - N/A   Clear
7:55 AM 30.9 °F 26.2 °F 16.0 °F 54% 30.35 in 10.0 mi East 4.6 mph - N/A   Clear
8:55 AM 35.1 °F 28.6 °F 15.1 °F 44% 30.34 in 10.0 mi East 8.1 mph - N/A   Clear
9:55 AM 37.9 °F 32.1 °F 12.9 °F 36% 30.34 in 10.0 mi SE 8.1 mph - N/A   Clear
10:55 AM 39.9 °F 35.8 °F 10.9 °F 31% 30.34 in 10.0 mi Variable 5.8 mph - N/A   Clear
11:55 AM 43.0 °F 41.3 °F 10.9 °F 27% 30.32 in 10.0 mi East 3.5 mph - N/A   Clear
12:55 PM 45.0 °F 43.5 °F 10.0 °F 24% 30.30 in 10.0 mi SSE 3.5 mph - N/A   Clear
1:55 PM 46.9 °F - 7.0 °F 20% 30.29 in 10.0 mi Calm Calm - N/A   Clear
2:55 PM 50.0 °F - 10.9 °F 21% 30.27 in 10.0 mi West 5.8 mph - N/A   Clear
3:55 PM 52.0 °F - 12.9 °F 21% 30.26 in 10.0 mi NW 9.2 mph - N/A   Clear
4:55 PM 53.1 °F - 12.0 °F 20% 30.25 in 10.0 mi West 10.4 mph - N/A   Clear
5:55 PM 52.0 °F - 12.9 °F 21% 30.24 in 10.0 mi WNW 11.5 mph - N/A   Clear
6:55 PM 50.0 °F - 3.9 °F 15% 30.25 in 10.0 mi NW 8.1 mph - N/A   Clear
7:55 PM 46.9 °F - -0.0 °F 14% 30.24 in 10.0 mi WNW 10.4 mph - N/A   Clear
8:55 PM 42.1 °F 37.7 °F 7.0 °F 24% 30.25 in 10.0 mi WNW 6.9 mph - N/A   Clear
9:55 PM 36.0 °F 28.5 °F 23.0 °F 59% 30.27 in 10.0 mi West 10.4 mph - N/A   Clear
10:55 PM 36.0 °F 29.0 °F 25.0 °F 64% 30.27 in 10.0 mi West 9.2 mph - N/A   Clear
11:55 PM 36.0 °F 29.0 °F 27.0 °F 70% 30.26 in 10.0 mi West 9.2 mph - N/A   Clear